Location: Titusville
(28.6120°N, 80.8080°W)
Time: 01:00:01
(UTC-04:00)

Tiangong 1 - Visible Passes

Search period start: 21 October 2017 00:00
Search period end: 31 October 2017 00:00
Orbit: 293 x 320 km, 42.8° (Epoch: 20 October)

Date Brightness Start Highest point End Pass type
(mag) Time Alt. Az. Time Alt. Az. Time Alt. Az.
28 Oct 4.1 06:41:09 10° SSE 06:41:38 10° SE 06:42:07 10° SE visible
29 Oct 2.6 06:48:51 10° SSW 06:51:10 29° SE 06:53:31 10° ENE visible
30 Oct 0.5 06:58:09 10° WSW 07:00:44 79° NW 07:03:21 10° NE visible
